Location: Newark
(52.4787°S, 179.0532°W)
Time: 10:14:26
(UTC+00:00)

Transit 2A Rocket - Pass Details

Date: 25 November 2019
Orbit: 594 x 909 km, 66.7° (Epoch: 08 December)

Event Time Altitude Azimuth Distance (km) Brightness Sun altitude
Rises 19:09:40 0° 2° (N) 3,334 8.4 29.4°
Reaches altitude 10° 19:12:20 10° 13° (NNE) 2,457 7.9 29.8°
Maximum altitude 19:17:07 28° 70° (ENE) 1,587 8.8 30.6°
Drops below altitude 10° 19:22:11 10° 126° (SE) 2,602 8.5 31.3°
Sets 19:25:04 0° 136° (SE) 3,566 8.9 31.8°
